User: anonymous   Login
Location: Boissi�res
(45.2500°N, 2.3667°E)
Time: 19:51:40
(UTC+00:00)
Language:

Cosmos 44 Rocket - Orbit

View from above orbital plane
View from above orbital plane
View from above satellite
View from above satellite

Ground track
Ground track

The orbit data is extracted from the following two-line orbital elements,

1 00877U 64053B   21136.20381140 -.00000061  00000-0  12931-4 0  9990
2 00877  65.0783  76.5284 0083449 269.5787  89.5749 14.59428220 10041
Epoch (UTC): 16 May 2021 04:53:29
Eccentricity: 0.0083449
inclination: 65.0783°
perigee height: 636 km
apogee height: 754 km
right ascension of ascending node: 76.5284°
argument of perigee: 269.5787°
revolutions per day: 14.59428220
mean anomaly at epoch: 89.5749°
orbit number at epoch: 1004

The dashed part of the orbit path shows where the satellite is in the earth's shadow,  

DLR